EW7770 Weather Reports


Display with metric or nautical units.
time (UTC)temp
F
wind
direction
speed
MPH
gust
MPH
rain 1hr
in
rain 24hr
in
rain mn
in
humidity
%
barometer
mb
20260508085625 39 337 2.0 4.0 0.00 0.01 0.00 64 1005.0
20260508083624 40 337 3.0 4.0 0.00 0.01 0.00 64 1005.1
20260508082625 40 337 2.0 4.0 0.00 0.01 0.00 64 1005.1
20260508081625 39 337 1.0 2.0 0.00 0.01 0.00 64 1005.2
20260508075625 40 337 0.0 1.0 0.00 0.01 0.00 63 1004.9
20260508074725 40 323 2.0 3.0 0.00 0.01 0.00 63 1004.9
20260508073725 40 337 0.0 0.0 0.00 0.01 0.00 63 1004.9
20260508072824 40 323 3.0 4.0 0.00 0.01 0.00 63 1004.7
20260508072725 40 315 1.0 3.0 0.00 0.01 0.00 62 1004.7
20260508071726 41 337 1.0 2.0 0.00 0.01 0.00 62 1004.7
20260508070726 41 315 1.0 2.0 0.00 0.01 0.00 62 1004.7
20260508065726 41 323 2.0 6.0 0.00 0.01 0.00 62 1004.9
20260508064724 41 312 2.0 4.0 0.00 0.01 0.00 61 1004.8
20260508063724 41 322 2.0 3.0 0.00 0.01 0.00 61 1004.9
20260508062725 41 333 1.0 3.0 0.00 0.01 0.00 61 1005.0
20260508061824 41 315 2.0 4.0 0.00 0.01 0.00 61 1005.1
20260508060825 41 315 2.0 4.0 0.00 0.02 0.00 60 1005.2
20260508055824 41 333 1.0 3.0 0.00 0.07 0.00 60 1005.2
20260508054825 42 324 2.0 4.0 0.00 0.15 0.00 59 1005.2
20260508053824 42 333 2.0 4.0 0.00 0.19 0.00 59 1005.3
20260508052827 42 323 1.0 2.0 0.00 0.19 0.00 59 1005.2
20260508051923 42 330 3.0 5.0 0.00 0.20 0.00 59 1005.3
20260508050926 42 315 2.0 3.0 0.00 0.20 0.00 59 1005.5
20260508045925 42 334 3.0 6.0 0.00 0.20 0.00 59 1005.6
20260508044924 42 337 3.0 4.0 0.00 0.20 0.00 59 1005.6
20260508041924 43 328 2.0 4.0 0.00 0.20 0.00 57 1005.8
20260508040927 43 329 3.0 5.0 0.00 0.20 0.00 58 1005.6
20260508035944 43 327 4.0 5.0 0.00 0.20 0.20 57 1005.8
20260508034948 44 339 3.0 5.0 0.00 0.20 0.20 56 1005.9
20260508033946 44 337 3.0 5.0 0.00 0.20 0.20 56 1006.0
20260508031946 44 335 3.0 5.0 0.00 0.20 0.20 56 1006.1
20260508030947 44 324 3.0 4.0 0.00 0.21 0.20 56 1006.1
20260508025946 45 334 3.0 4.0 0.00 0.21 0.20 54 1005.9
20260508023946 45 337 4.0 5.0 0.00 0.22 0.20 55 1005.8
20260508022944 45 330 4.0 6.0 0.00 0.23 0.20 54 1005.7
20260508021945 45 342 3.0 4.0 0.00 0.24 0.20 55 1005.9
20260508021846 46 326 3.0 4.0 0.00 0.24 0.20 55 1005.9
20260508020846 46 339 4.0 6.0 0.00 0.25 0.20 55 1006.0
20260508015944 46 321 2.0 4.0 0.00 0.27 0.20 55 1006.0
20260508014946 47 319 4.0 6.0 0.00 0.28 0.20 53 1006.2
20260508013944 47 330 4.0 5.0 0.00 0.30 0.20 53 1006.2
20260508012947 47 330 3.0 4.0 0.00 0.34 0.20 53 1006.2
20260508011946 48 324 5.0 9.0 0.00 0.39 0.20 54 1006.1
20260508010946 48 323 4.0 6.0 0.00 0.42 0.20 52 1006.1
20260508005945 49 323 4.0 6.0 0.00 0.44 0.20 53 1005.9
20260508004946 49 338 6.0 7.0 0.00 0.47 0.20 53 1006.0
20260508004045 49 338 6.0 14.0 0.00 0.51 0.20 53 1005.8
20260508000244 51 329 6.0 9.0 0.00 0.65 0.20 58 1005.1
20260507235245 51 337 4.0 5.0 0.00 0.66 0.20 61 1004.9
20260507234246 50 328 3.0 5.0 0.00 0.69 0.20 58 1004.6
20260507233246 51 270 0.0 1.0 0.00 0.72 0.20 58 1004.4
20260507233146 51 270 1.0 1.0 0.00 0.72 0.20 59 1004.4
20260507232147 52 225 0.0 0.0 0.00 0.74 0.20 60 1004.3
20260507231244 52 270 0.0 1.0 0.00 0.75 0.20 61 1004.1
20260507225347 53 202 0.0 0.0 0.00 0.78 0.20 61 1003.8
20260507225246 53 202 0.0 0.0 0.00 0.78 0.20 61 1003.8
20260507224245 53 202 0.0 1.0 0.00 0.78 0.20 61 1003.7
20260507222245 54 202 0.0 2.0 0.00 0.80 0.20 60 1003.5
20260507221246 55 225 1.0 2.0 0.00 0.81 0.20 60 1003.5
20260507215245 56 230 1.0 3.0 0.00 0.84 0.20 59 1003.7
20260507214306 56 242 2.0 3.0 0.00 0.85 0.20 59 1003.7
20260507212345 56 227 3.0 8.0 0.00 0.86 0.20 58 1003.7
20260507211345 57 224 4.0 8.0 0.00 0.86 0.20 59 1003.5
20260507210345 56 206 1.0 3.0 0.00 0.87 0.20 58 1003.5
20260507205346 57 200 3.0 6.0 0.00 0.87 0.20 58 1003.5
20260507203346 58 232 1.0 4.0 0.00 0.87 0.20 57 1003.4
20260507202345 59 244 1.0 4.0 0.00 0.87 0.20 56 1003.2
20260507201444 60 249 3.0 6.0 0.00 0.87 0.20 54 1003.2
20260507200444 63 234 3.0 8.0 0.00 0.87 0.20 53 1003.1
20260507195445 63 279 2.0 4.0 0.00 0.87 0.20 53 1003.1
20260507194446 62 252 0.0 1.0 0.00 0.87 0.20 52 1003.1
20260507193447 62 321 2.0 4.0 0.00 0.87 0.20 53 1003.2
20260507192445 61 265 1.0 3.0 0.00 0.87 0.20 53 1003.3
20260507191447 61 255 2.0 5.0 0.00 0.87 0.20 52 1003.2
20260507190447 62 304 2.0 3.0 0.00 0.87 0.20 53 1003.3
20260507185445 62 310 0.0 3.0 0.00 0.87 0.20 53 1003.4
20260507184444 61 220 0.0 3.0 0.00 0.87 0.20 52 1003.5
20260507183446 61 331 1.0 2.0 0.00 0.87 0.20 52 1003.6
20260507182445 62 272 1.0 2.0 0.00 0.87 0.20 50 1003.6
20260507181445 62 321 3.0 5.0 0.00 0.87 0.20 49 1003.7
20260507175446 61 255 0.0 2.0 0.00 0.87 0.20 52 1003.8
20260507174544 62 317 3.0 4.0 0.00 0.87 0.20 52 1003.9
20260507173547 61 269 1.0 3.0 0.00 0.87 0.20 51 1003.8
20260507171645 62 295 0.0 2.0 0.00 0.87 0.20 51 1003.8
20260507170644 62 329 1.0 3.0 0.00 0.87 0.20 51 1003.8
20260507165645 61 338 2.0 3.0 0.00 0.87 0.20 52 1004.1
20260507163649 61 247 0.0 2.0 0.00 0.87 0.20 52 1004.2
20260507161644 60 307 1.0 2.0 0.00 0.87 0.20 53 1004.4
20260507160645 60 52 3.0 5.0 0.00 0.87 0.20 55 1004.6
20260507155646 58 28 2.0 4.0 0.00 0.87 0.20 56 1004.6
20260507154645 58 319 2.0 5.0 0.00 0.87 0.20 56 1004.7
20260507153645 57 337 3.0 4.0 0.00 0.87 0.20 56 1005.1
20260507152646 57 308 3.0 4.0 0.00 0.87 0.20 57 1005.0
20260507151645 56 12 3.0 4.0 0.00 0.87 0.20 58 1005.2
20260507150644 55 358 4.0 7.0 0.00 0.87 0.20 58 1005.3
20260507145647 56 11 6.0 8.0 0.00 0.87 0.20 57 1005.3
20260507144647 55 334 3.0 6.0 0.00 0.87 0.20 58 1005.4
20260507142745 55 3 2.0 3.0 0.00 0.87 0.20 59 1005.7
20260507141844 54 308 1.0 1.0 0.00 0.87 0.20 60 1005.6
20260507135945 54 293 3.0 3.0 0.00 0.87 0.20 59 1005.8
20260507135845 54 318 2.0 4.0 0.00 0.87 0.20 59 1005.7
20260507133943 53 343 2.0 4.0 0.00 0.87 0.20 56 1006.2
20260507132947 51 14 1.0 5.0 0.00 0.87 0.20 54 1006.0
20260507132044 51 345 4.0 5.0 0.00 0.87 0.20 53 1005.8
20260507131045 50 331 2.0 4.0 0.00 0.87 0.20 51 1006.0
20260507130945 49 333 4.0 6.0 0.00 0.87 0.20 52 1005.9
20260507125946 49 330 4.0 6.0 0.00 0.87 0.20 50 1005.9
20260507125044 49 334 5.0 7.0 0.00 0.87 0.20 48 1005.8
20260507121046 46 346 3.0 4.0 0.00 0.87 0.20 42 1005.7
20260507120045 46 313 3.0 4.0 0.00 0.87 0.20 39 1005.6
20260507115046 45 337 3.0 4.0 0.00 0.87 0.20 39 1006.1
20260507114044 45 337 2.0 3.0 0.00 0.87 0.20 37 1005.9
20260507113044 44 322 3.0 3.0 0.00 0.87 0.20 37 1006.2
20260507112047 44 337 3.0 4.0 0.00 0.87 0.20 37 1006.1
20260507111144 44 315 3.0 4.0 0.00 0.87 0.20 36 1005.6
20260507110146 44 315 2.0 2.0 0.00 0.87 0.20 35 1005.9
20260507105244 44 336 4.0 5.0 0.00 0.87 0.20 35 1005.9
20260507104343 44 315 3.0 3.0 0.00 0.87 0.20 33 1005.5
20260507102445 44 337 4.0 4.0 0.01 0.87 0.20 28 1005.3
20260507101446 44 315 1.0 3.0 0.01 0.87 0.20 28 1004.8
20260507100446 44 326 3.0 5.0 0.01 0.87 0.20 28 1005.0
20260507095446 44 337 2.0 3.0 0.01 0.87 0.20 28 1005.0
20260507094446 44 339 4.0 6.0 0.01 0.87 0.20 28 1004.8
20260507093446 44 337 3.0 4.0 0.00 0.86 0.19 28 1005.0
20260507092445 44 338 2.0 4.0 0.00 0.86 0.19 27 1005.4
20260507091544 44 340 4.0 5.0 0.00 0.86 0.19 27 1005.4